Lid_Strength_Index
-1 -1 -1 -1 -1 -1 -1 -1 -1 -1 -1 -1 -1 -1 -1 -1 0 0 -1 -0 -1 -1 -1 -1 -1 -1 -1 -1 -1 -2 -1 -2 -1
-1 -1 -1 -1 -1 -1 -1 -1 -1 -1 -1 -1 -1 -1 -1 0 -0 -0 0 -0 -1 -1 -1 -1 -1 -1 -1 -1 -1 -1 -1 -1 -1
-1 -1 -1 -1 -1 -1 -1 -1 -1 -1 -1 -1 -1 -1 -1 -0 -0 0 0 -1 -1 -1 -1 -1 -1 -1 -1 -1 -1 -1 -1 -1 -1
-1 -2 -1 -1 -1 -1 -1 -1 -1 -1 -1 -1 -1 -1 -0 1 -0 -0 0 -1 -1 -1 -1 -1 -1 -1 -1 -1 -1 -1 -1 -1 -1
-1 -1 -1 -1 -1 -1 -1 -1 -1 -1 -1 -1 -1 0 0 1 0 -0 -0 -1 -1 -1 -1 -1 -1 -1 -1 -1 -1 -1 -1 -1 -1
1 -0 -1 -2 -2 -2 -1 -1 -1 -1 -1 0 1 1 2 1 0 -0 -1 -1 -1 -1 -1 -1 -1 -1 -1 -1 -1 -1 -1 -1 -1
2 1 -1 -1 -1 -2 -1 -1 -1 0 1 2 2 3 3 2 0 -0 -1 -1 -1 -1 -1 -1 -1 -1 -1 -1 -1 -1 -1 -2 -1
4 4 4 3 1 1 0 0 1 1 2 2 3 3 2 2 1 -1 -1 -2 -2 -2 -1 -1 -1 -1 -1 -2 -1 -1 -2 -1 -1
5 5 5 5 4 3 2 2 1 1 2 3 3 3 3 3 2 0 -1 -2 -2 -2 -2 -1 -1 -1 -2 -2 -2 -2 -2 -1 -1
6 6 6 6 5 4 3 2 1 2 2 2 3 4 4 3 3 1 -0 -1 -2 -2 -2 -2 -1 -2 -2 -2 -2 -1 -1 -1 -1
7 8 7 7 5 4 3 2 3 3 2 3 3 4 4 4 4 3 2 -0 -1 -2 -2 -2 -2 -1 -2 -2 -1 -1 -1 -1 -1
8 8 8 8 6 5 4 4 4 3 3 3 4 4 5 4 4 4 4 4 -0 -1 -2 -2 -2 -2 -2 -2 -2 -2 -2 -2 -2
9 9 9 8 7 5 4 5 5 6 6 5 5 5 6 6 6 6 5 6 5 1 -0 -1 -2 -2 -2 -2 -2 -2 -2 -2 -2
9 9 9 7 7 6 5 6 5 6 7 6 7 7 8 7 7 8 7 7 7 6 2 1 -0 -1 -2 -2 -2 -2 -2 -2 -2
10 10 9 8 7 7 7 7 7 7 7 7 8 9 9 8 9 9 8 8 8 8 8 8 4 0 -1 -2 -2 -2 -2 -2 -2
10 11 10 9 8 7 7 8 7 9 8 9 9 9 9 9 9 9 9 9 9 9 9 9 8 7 2 0 -2 -2 -2 -2 -2
11 11 10 10 9 8 8 8 10 10 9 9 10 11 10 10 10 10 10 10 10 10 10 10 9 9 8 3 0 -1 -2 -2 -2
11 11 11 11 10 10 10 10 9 10 11 9 9 11 12 11 10 11 11 11 12 11 11 11 11 10 9 6 3 1 -0 -1 -1
11 11 11 11 11 11 11 10 11 11 11 11 10 11 10 12 13 11 12 12 12 12 12 12 12 12 11 7 3 2 2 0 -0
11 11 12 11 11 11 11 11 11 11 11 12 12 12 12 11 12 13 13 12 12 12 12 13 13 12 11 10 6 4 3 2 2